RH
81 83 86 86 85 84 85 87 87 87 88 88 87 87 87 86 84 91 90 92 95 99 92 88 70 69 64 63 72 68 71 76 86 83 88 87 95 84 76 70 87 86 95 98 94 98 94 65 59 64 70 70 62 58
86 87 87 87 90 92 91 91 91 90 90 89 87 86 88 87 86 86 97 92 87 95 95 91 86 71 61 47 54 65 63 65 73 86 88 90 90 93 82 88 70 83 75 86 83 76 68 68 69 58 66 76 71 68
88 89 93 93 93 89 90 91 90 90 88 88 89 84 88 87 86 88 95 96 95 96 94 93 91 66 63 72 42 74 77 66 85 83 91 87 76 88 90 76 56 58 65 81 85 60 61 58 59 66 57 64 64 60
93 95 94 92 91 92 91 93 92 93 93 90 89 89 89 88 87 90 97 92 84 92 98 92 78 86 69 69 76 73 68 81 80 92 89 94 91 70 85 62 80 72 70 71 73 60 56 52 50 60 51 67 66 57
97 93 90 89 90 91 90 92 90 92 91 90 90 88 88 91 90 94 95 86 82 84 94 97 82 75 70 69 74 82 81 80 96 96 98 92 90 83 89 84 77 77 80 87 81 52 51 48 46 53 50 61 65 65
89 88 90 89 90 91 93 88 90 89 90 87 86 84 84 85 92 95 99 92 81 96 94 99 86 84 79 76 77 85 90 94 94 96 97 91 72 69 91 89 88 86 83 82 85 74 63 57 47 55 55 53 62 61
91 90 93 93 91 91 92 91 92 90 90 92 91 90 89 91 92 95 95 92 83 97 99 99 99 87 86 82 93 92 91 98 96 96 99 92 85 74 96 98 87 83 83 81 75 74 73 68 70 62 57 55 56 52
94 94 94 94 91 91 90 90 91 92 91 91 90 88 88 89 89 93 96 84 86 98 89 95 99 96 89 93 93 96 94 94 95 97 97 96 89 96 97 96 85 84 83 82 81 77 80 76 70 74 71 69 74 75
93 94 94 93 90 92 91 88 88 88 88 89 85 88 92 95 98 97 85 90 90 91 94 96 97 99 94 99 94 93 93 96 95 99 98 96 96 97 95 89 88 88 95 93 78 82 80 86 85 82 78 77 78 79
94 94 96 92 92 91 91 88 86 93 91 88 92 96 99 100 92 90 86 84 83 88 93 98 96 99 96 100 100 96 99 98 96 96 96 98 98 92 90 93 92 91 94 94 95 94 93 93 92 91 90 85 84 84
93 92 92 92 92 92 91 89 89 86 88 93 97 99 92 86 89 89 93 88 87 93 95 97 96 97 96 97 99 98 98 99 94 93 95 97 94 92 84 84 86 85 86 91 94 97 96 92 92 93 93 91 89 88
90 90 90 89 90 89 88 86 86 94 98 91 88 91 91 92 91 89 96 93 93 97 98 98 98 98 100 96 99 99 93 95 98 95 94 95 95 90 86 87 87 87 85 85 83 87 89 88 91 89 89 90 91 90
90 91 91 90 90 88 85 83 84 83 88 91 92 94 90 93 89 93 87 97 98 99 99 100 100 100 99 99 100 98 89 98 96 93 98 95 91 85 89 86 90 90 87 89 91 90 86 89 89 91 92 95 92 93
89 89 87 87 83 83 81 76 79 78 87 89 88 92 93 96 98 98 98 98 99 99 98 99 99 100 100 100 100 98 99 92 95 95 95 95 94 94 94 93 86 94 94 95 95 95 95 94 96 96 95 96 94 95
89 87 74 79 82 73 72 76 70 78 85 91 86 98 96 98 97 98 98 99 99 99 99 99 100 100 99 98 98 94 94 97 94 98 98 97 97 96 96 96 96 96 96 96 96 95 96 95 94 95 96 95 95 95
83 82 88 80 79 80 74 75 84 87 90 88 92 96 95 95 94 97 97 98 98 98 99 99 99 98 98 96 90 97 88 96 98 97 97 96 96 96 96 96 96 96 96 96 96 95 95 94 94 95 93 93 93 91
85 95 86 91 73 74 77 90 86 86 94 92 97 99 100 100 99 98 98 96 97 99 98 97 95 97 94 94 91 92 97 96 97 96 96 96 96 96 96 94 94 94 94 94 93 92 94 91 83 83 91 92 89 90
98 96 91 89 91 83 81 89 86 87 96 98 98 97 98 98 97 97 96 88 96 97 94 95 88 94 96 94 96 97 96 96 96 95 95 95 95 95 95 95 95 95 94 94 92 91 89 88 88 92 91 85 84 84
96 96 92 90 86 91 92 93 82 94 98 98 94 88 97 96 91 88 86 81 75 77 85 87 91 95 97 94 95 96 96 92 94 95 94 96 95 95 95 94 93 93 92 92 87 84 83 88 90 89 88 86 93 92
91 83 85 86 82 91 94 98 86 90 96 96 95 92 92 94 82 81 79 71 68 78 89 94 96 97 96 96 90 94 95 93 89 91 94 94 94 92 94 92 90 86 82 85 88 85 85 85 82 86 91 92 94 96
87 84 80 79 91 96 98 98 98 97 96 93 90 89 91 74 78 81 78 62 75 94 95 96 96 96 94 95 91 90 94 90 95 89 91 93 92 84 84 84 84 84 89 92 94 96 93 95 95 93 95 100 99 95
81 74 94 86 89 84 88 90 95 94 89 92 94 90 95 92 89 82 69 80 93 96 95 94 95 89 90 93 94 90 91 88 88 88 86 86 92 92 95 96 93 95 95 97 97 100 99 94 92 92 96 100 96 96
78 84 92 83 86 83 88 85 89 92 93 94 90 88 93 94 90 76 96 91 96 95 88 86 88 85 91 90 87 83 79 79 88 90 92 93 93 97 95 96 96 97 96 96 91 94 98 95 94 96 98 97 99 100
76 95 98 98 92 100 90 90 88 84 86 88 90 96 95 93 85 91 95 94 96 94 87 84 76 80 80 84 91 88 84 83 92 96 94 85 90 93 92 95 95 95 96 91 94 97 96 100 98 94 97 98 100 100
80 88 87 90 92 86 91 91 92 87 96 94 96 99 94 91 96 98 98 97 97 98 99 92 86 89 96 98 96 96 86 80 89 93 95 87 92 90 93 94 96 95 96 97 100 100 100 100 100 100 99 100 99 100
97 94 92 95 95 90 95 96 95 95 97 96 97 94 92 94 95 100 98 98 97 99 100 99 94 95 94 89 94 94 96 77 78 92 92 88 93 99 100 100 100 100 98 100 99 100 100 100 100 100 100 100 100 100
94 94 93 78 97 91 94 93 91 94 97 99 98 98 93 100 100 99 98 99 98 98 99 98 92 92 94 93 88 91 91 89 89 89 92 84 84 89 94 99 100 98 99 99 100 100 100 100 100 100 100 100 100 100
96 90 94 95 92 92 96 98 99 100 100 93 87 100 99 100 99 98 100 98 97 93 95 95 94 94 96 97 98 98 98 97 93 92 92 95 98 100 100 100 99 100 100 100 100 100 99 100 100 100 100 100 100 100
97 96 87 97 95 97 99 100 100 97 92 96 99 100 99 98 99 98 99 96 96 92 97 98 100 99 97 96 98 100 100 99 99 100 100 100 100 99 100 100 100 100 100 100 100 100 99 100 100 100 100 100 99 100
95 94 92 98 98 100 99 99 100 99 95 98 96 86 91 96 96 98 98 96 98 100 100 100 99 98 100 100 100 99 100 100 100 96 100 100 100 100 100 100 100 100 100 100 100 99 100 100 100 99 99 99 100 100
93 92 94 97 99 99 99 99 88 87 95 96 99 98 99 98 97 97 97 99 99 98 97 100 100 100 99 100 100 100 100 100 99 100 100 100 100 100 100 100 100 100 100 100 100 100 100 100 100 100 100 100 100 100
96 98 96 99 99 98 99 100 100 100 100 100 100 100 100 100 100 100 98 100 99 100 100 100 100 100 100 100 100 100 100 100 100 100 100 100 100 100 100 100 100 100 100 100 100 100 100 100 100 100 100 100 100 100
94 92 99 100 99 100 99 96 99 99 99 100 99 99 100 98 100 98 98 100 100 98 100 100 100 100 100 100 99 100 100 100 100 100 100 100 100 100 100 100 100 100 100 100 100 100 100 100 100 100 100 100 100 100
Wind_Speed
20 21 24 24 25 26 28 29 29 27 26 27 29 29 31 32 31 19 9 13 10 3 5 5 11 6 12 15 12 4 4 4 2 7 5 5 4 7 4 8 8 9 9 5 6 5 11 2 12 6 6 4 13 15
20 20 22 24 25 26 26 24 26 26 27 28 29 30 31 32 33 29 6 12 8 4 2 3 6 9 7 19 13 7 6 7 7 5 4 2 2 1 6 4 4 5 8 7 10 9 4 1 2 6 5 5 4 10
20 21 22 21 21 17 15 18 19 22 24 24 24 30 31 32 32 27 9 10 8 4 1 4 8 9 8 7 12 7 3 6 5 5 5 5 5 7 3 7 6 5 5 4 3 8 12 4 3 8 6 5 6 8
20 19 14 12 12 12 12 13 15 16 21 24 22 26 29 31 32 27 8 10 9 4 4 5 5 6 6 7 7 6 7 4 5 4 4 3 3 5 6 5 6 6 7 6 6 7 3 10 7 8 8 3 3 8
15 10 6 7 6 8 8 4 2 4 9 21 20 21 24 27 30 14 8 11 6 8 6 2 2 6 9 8 7 5 6 4 4 2 4 5 3 3 2 3 2 5 3 4 7 8 5 8 10 8 4 3 1 5
3 5 4 5 6 7 7 6 8 11 14 15 18 22 29 29 26 9 5 7 10 3 4 5 3 5 5 9 10 7 5 3 4 4 4 4 4 5 3 3 8 7 9 12 7 15 7 8 5 7 6 7 4 5
7 8 6 7 9 9 13 15 15 15 18 19 23 26 29 30 13 4 5 6 14 5 3 3 2 2 2 5 2 2 4 2 3 2 3 2 2 5 3 3 11 12 13 10 14 13 6 9 6 8 8 7 6 7
11 11 10 11 12 14 15 18 19 20 23 25 27 30 26 21 10 3 2 22 17 4 2 4 2 3 6 2 2 5 3 2 2 3 1 3 1 3 5 9 12 12 14 9 16 12 7 7 11 12 11 10 12 14
13 11 10 13 17 19 19 21 23 23 24 25 20 17 8 5 2 3 20 23 9 3 3 3 4 2 3 1 1 3 3 2 2 3 2 1 4 6 6 10 12 13 11 13 14 10 11 12 11 14 13 16 13 14
13 16 16 18 19 20 20 21 20 17 14 7 3 3 3 2 5 3 4 3 1 3 3 3 2 3 2 1 2 3 2 3 3 5 5 5 3 6 9 9 9 11 10 11 8 9 12 12 13 15 15 11 12 12
19 20 21 22 20 16 14 12 11 5 2 3 4 4 0 6 2 3 3 3 1 3 2 2 3 5 1 4 2 2 3 1 2 2 5 5 2 7 11 11 11 10 10 10 8 8 9 10 10 10 12 13 14 15
21 21 20 18 15 13 12 13 15 6 2 2 6 3 3 4 4 6 2 3 4 2 3 3 1 2 2 3 2 2 3 1 3 2 6 4 4 8 9 10 11 11 12 13 14 14 14 14 12 13 13 13 14 14
17 14 11 8 7 7 6 7 8 5 3 3 5 5 4 5 10 5 2 3 3 3 4 3 2 1 2 1 1 3 3 2 3 6 5 4 6 7 8 8 11 12 13 16 16 15 17 17 16 15 15 13 15 16
16 14 13 11 10 9 11 9 7 6 6 5 5 8 5 6 5 4 3 2 2 2 4 2 1 1 1 2 0 4 4 5 5 4 4 3 7 8 8 8 10 12 14 16 15 14 15 16 17 16 14 13 15 16
13 10 14 16 10 12 15 15 12 5 5 7 6 6 5 3 3 3 3 3 2 3 2 1 2 2 4 4 5 5 6 6 5 3 3 4 7 8 9 9 10 12 13 12 12 13 15 15 15 15 14 14 15 14
10 11 7 15 18 10 10 9 7 5 5 5 8 5 4 3 5 3 4 4 4 4 2 1 3 4 5 4 6 6 4 5 3 3 4 6 10 10 10 10 11 11 13 13 12 13 13 14 15 15 15 15 15 15
9 3 9 11 13 18 15 6 5 8 6 7 4 2 2 1 3 6 4 6 4 3 4 4 7 5 3 5 5 5 3 5 6 7 8 10 10 11 11 12 13 14 15 14 13 13 13 12 13 14 16 14 14 15
3 3 9 10 5 5 5 6 6 7 7 4 4 6 4 3 5 4 6 7 5 3 3 5 4 8 5 4 3 4 6 8 8 9 9 11 12 12 11 12 12 12 12 12 12 12 12 12 12 9 10 11 11 12
4 4 9 10 4 4 5 5 5 7 6 2 4 5 3 3 8 6 5 6 7 6 5 5 8 5 4 6 9 8 8 7 9 9 9 11 10 11 11 11 12 12 12 12 12 9 9 12 9 8 7 7 8 7
6 5 9 4 2 4 6 4 4 6 4 3 2 8 8 7 8 8 10 8 7 5 8 8 5 4 6 8 8 8 7 7 8 9 8 7 7 10 10 8 7 8 8 10 10 10 8 9 9 8 7 7 7 7
5 5 7 4 4 6 5 3 5 4 6 4 5 5 7 9 15 15 12 8 11 7 7 6 8 9 11 10 9 9 9 7 7 6 7 7 6 7 7 7 8 7 7 6 7 7 9 7 5 6 6 4 4 6
2 7 3 5 5 5 6 5 5 4 4 4 3 3 2 4 7 11 7 11 8 7 5 6 8 9 11 12 10 10 11 12 11 9 10 8 6 6 7 6 6 6 6 5 5 4 4 4 4 5 5 4 5 4
5 5 4 5 7 7 1 2 5 2 4 2 4 5 5 5 5 5 7 6 4 5 7 8 11 12 12 12 12 12 10 10 7 7 7 6 6 4 6 6 5 4 5 5 4 4 3 4 5 5 4 5 4 4
6 6 5 4 6 2 3 5 3 4 5 4 4 4 3 4 3 5 4 3 4 4 5 7 6 8 8 10 8 7 6 6 7 6 3 6 6 5 5 5 6 6 4 4 4 4 5 3 4 5 4 5 5 4
9 9 6 7 4 7 6 5 4 5 4 3 4 3 1 3 4 4 3 1 3 3 3 5 7 7 6 3 4 4 6 5 6 7 5 4 6 5 5 5 6 6 4 5 4 4 3 3 3 4 4 4 5 4
9 6 6 4 4 5 2 4 4 3 4 4 4 2 4 5 6 4 2 1 1 2 1 3 5 5 5 4 3 3 2 4 5 6 5 4 3 4 3 3 2 3 4 3 4 4 4 3 4 5 3 3 4 4
7 6 4 4 2 4 5 4 4 6 5 3 1 4 5 6 3 1 1 2 2 2 3 3 4 5 5 4 4 4 4 4 6 6 4 5 5 3 4 4 3 2 1 3 4 4 4 3 3 2 2 2 2 2
4 5 6 6 7 6 6 5 5 4 2 3 5 6 5 4 3 2 3 2 4 5 6 6 6 6 6 5 3 3 4 4 6 6 6 5 4 3 3 2 2 2 1 0 3 2 2 4 3 2 2 2 3 2
5 2 5 7 6 6 6 3 2 3 3 2 5 3 3 2 1 3 3 4 3 6 5 5 3 4 5 5 5 4 3 4 5 3 2 1 2 3 2 2 2 2 2 3 4 1 5 3 4 4 5 4 3 3
3 3 6 5 7 6 5 3 2 3 3 3 4 8 6 4 4 2 3 4 3 3 3 4 3 3 3 4 2 5 4 3 3 5 5 4 5 2 1 2 1 2 2 3 2 4 7 5 5 5 5 4 3 2
3 5 6 5 5 1 3 2 7 8 5 6 5 6 4 3 4 4 4 2 4 4 5 4 4 3 5 3 3 3 1 3 2 3 3 3 2 3 2 2 2 1 2 3 3 3 3 3 2 2 3 3 4 3
4 5 6 6 2 2 2 2 3 4 3 4 3 3 4 5 3 3 3 3 3 3 2 4 5 0 2 2 2 1 5 3 3 3 5 3 2 1 1 2 2 3 4 4 3 3 3 3 3 3 3 4 4 4
5 6 5 5 4 1 3 4 4 3 5 3 2 2 1 4 3 4 2 2 4 5 4 3 3 3 5 5 5 3 4 3 5 4 5 4 3 1 1 1 2 3 4 3 3 2 4 3 3 4 4 3 4 5
Wind_Direction
293 270 268 268 267 265 262 257 254 250 246 236 226 220 215 210 206 198 193 181 176 180 267 256 224 160 182 199 200 191 121 211 150 191 187 209 197 217 174 169 167 165 170 213 163 182 249 94 317 46 293 309 322 328
286 278 272 270 270 269 265 256 251 246 241 233 226 218 211 205 201 192 189 174 186 177 290 327 283 252 218 203 197 186 188 156 181 164 220 145 187 351 148 221 151 203 190 186 192 215 271 197 198 277 229 245 296 316
284 282 278 278 273 273 268 263 255 244 236 227 219 217 201 196 195 190 172 159 168 167 345 300 246 219 216 251 208 174 235 164 151 152 187 197 198 133 175 233 238 258 161 216 129 248 243 219 187 224 240 237 313 320
290 290 283 285 289 279 275 282 271 262 242 214 199 194 188 187 185 179 168 161 153 110 219 258 210 269 186 169 214 160 155 96 107 109 184 195 174 174 196 210 159 205 166 194 240 272 277 260 221 198 229 169 4 320
284 289 300 302 318 309 305 303 7 5 179 174 172 175 176 176 173 143 154 165 174 153 187 214 160 263 198 171 183 162 155 154 149 164 187 196 201 124 170 94 200 324 310 196 224 231 209 244 258 184 219 194 336 323
353 57 32 17 29 23 28 105 91 78 99 138 159 170 172 166 146 137 128 184 210 134 222 183 213 195 179 173 177 169 168 147 158 152 235 252 217 137 146 184 49 13 336 18 332 313 268 293 336 335 258 238 217 239
65 74 53 35 71 49 71 82 89 96 100 109 121 125 135 136 136 125 180 162 168 75 211 146 119 11 18 145 159 159 111 161 149 104 260 234 231 146 95 113 1 358 340 337 347 346 8 20 329 343 34 1 334 0
77 75 64 69 79 77 75 88 85 94 105 102 112 121 129 97 58 10 327 136 137 237 210 120 72 88 6 83 137 203 151 126 104 137 110 286 25 63 65 349 355 351 345 356 353 7 336 314 28 13 16 14 37 34
77 63 86 91 97 85 83 88 90 87 98 95 93 83 67 26 75 113 129 138 181 224 110 85 120 139 7 10 137 32 80 73 173 126 152 18 27 61 3 349 355 354 352 336 333 3 8 43 33 26 32 30 44 41
71 78 82 104 96 93 88 90 90 94 125 134 106 103 59 44 321 141 40 111 110 352 59 95 122 115 122 1 28 73 54 172 157 206 114 80 77 75 16 8 353 339 342 351 356 3 355 23 41 41 44 46 56 61
80 77 76 79 73 59 56 57 43 35 83 40 47 47 232 285 70 61 98 88 93 43 27 126 133 136 271 119 165 175 192 195 138 211 104 96 73 18 7 13 1 358 16 25 35 36 32 42 49 63 59 58 63 68
82 73 63 54 44 39 34 15 5 25 4 97 109 110 29 29 38 76 42 357 49 58 15 81 203 118 108 87 139 221 169 95 106 51 74 74 26 13 18 19 18 25 40 46 47 52 55 57 59 67 68 67 64 69
80 81 73 65 52 41 355 330 324 322 353 28 50 59 30 340 46 50 75 29 59 4 3 345 81 104 113 123 164 104 145 84 93 46 67 47 21 32 27 31 35 32 45 56 55 58 64 64 61 63 66 65 74 71
80 67 50 49 57 64 54 52 43 42 49 58 51 34 64 12 39 29 335 318 327 345 328 323 56 66 110 171 223 88 52 41 66 68 68 43 43 45 42 45 53 51 49 52 52 55 61 63 62 61 62 65 72 70
70 55 50 34 47 64 55 52 48 55 52 48 37 43 48 342 327 280 291 301 346 280 303 172 103 39 30 46 9 77 62 67 50 58 72 47 58 57 53 49 55 57 58 55 52 53 56 62 65 65 58 62 66 71
39 43 13 29 35 60 66 52 29 58 54 56 44 21 325 45 328 341 355 339 329 312 239 3 65 84 57 41 43 26 61 52 70 67 82 70 60 52 47 48 55 61 62 61 59 61 62 60 62 65 61 56 57 63
46 21 1 360 48 48 42 67 48 51 59 39 10 9 335 353 335 336 331 330 303 312 44 50 44 31 62 61 60 31 54 102 94 76 66 62 64 66 64 61 57 57 56 52 52 53 57 62 68 67 65 59 64 64
64 19 2 2 17 74 52 50 73 68 56 14 35 5 11 2 335 328 337 341 359 53 47 61 62 33 33 56 65 90 85 82 75 79 77 73 71 64 61 66 62 63 64 60 58 56 51 52 56 52 61 70 71 65
74 45 14 346 26 77 74 44 63 80 53 59 11 11 355 7 15 360 3 4 34 39 73 55 57 29 37 70 104 94 87 85 89 79 69 66 71 73 72 67 63 59 55 56 59 58 56 53 51 48 49 53 63 62
24 17 357 296 5 88 77 51 83 95 88 116 71 53 45 30 19 31 34 32 49 63 46 47 41 28 69 88 93 96 94 97 101 95 79 68 62 67 62 66 65 67 66 60 53 51 55 58 47 43 45 52 65 61
358 343 346 30 62 62 92 100 76 99 112 100 158 89 68 46 44 38 41 24 45 40 62 58 69 69 69 70 72 76 73 80 86 91 106 95 76 78 76 69 66 64 64 55 58 50 52 52 45 39 48 44 49 65
335 354 39 18 69 53 54 20 95 107 87 122 141 83 78 39 30 31 29 41 57 36 42 65 68 79 77 71 74 74 84 83 78 74 67 74 80 65 55 48 67 77 74 67 66 68 53 50 52 46 47 17 52 53
11 32 38 38 68 58 315 34 72 81 99 83 39 44 29 42 27 10 61 35 52 39 57 62 66 68 77 76 71 65 66 80 80 78 78 78 73 62 66 53 48 73 74 63 71 66 51 50 56 53 35 46 47 47
34 50 44 58 71 96 27 28 45 58 44 55 60 75 64 106 84 59 62 41 69 105 79 76 75 77 63 53 55 62 70 82 77 57 62 94 87 71 69 64 51 46 44 71 68 65 52 49 50 57 47 64 49 58
66 349 60 12 6 67 57 34 25 64 74 67 82 45 10 80 79 78 93 59 353 46 58 75 80 77 88 74 46 39 36 74 86 80 33 81 101 88 76 69 57 41 18 61 34 51 20 41 46 69 59 68 71 49
68 346 43 39 348 78 57 61 53 81 87 57 53 44 53 66 62 64 82 190 18 13 62 128 115 89 62 61 77 48 27 75 90 83 46 39 66 126 129 103 51 6 18 93 88 67 39 31 55 67 48 39 59 66
62 34 36 35 6 69 61 50 49 63 61 76 1 49 73 72 95 115 98 43 86 339 46 84 98 100 106 93 71 46 44 56 76 91 92 73 68 74 123 128 116 251 9 80 87 111 116 84 67 76 28 333 259 214
77 53 66 322 51 24 82 55 45 49 29 349 63 46 98 138 160 157 136 124 114 89 76 64 67 81 83 69 51 56 46 68 87 86 83 56 39 33 51 55 39 79 51 141 152 153 135 154 164 201 212 245 271 283
46 20 72 40 46 42 41 64 51 24 337 58 103 94 92 65 181 98 136 119 101 101 94 95 25 67 70 64 49 34 39 140 118 115 156 166 352 324 345 51 42 27 21 23 6 182 203 207 210 222 240 227 247 242
13 62 88 58 60 46 2 55 22 306 28 110 99 99 66 35 24 54 98 104 91 125 170 155 154 112 137 110 71 19 4 40 106 133 147 189 216 242 38 36 360 330 4 72 38 342 359 17 352 8 20 10 18 14
94 66 69 58 84 339 203 180 68 58 44 47 37 78 104 123 10 18 42 56 102 95 90 81 60 28 111 133 136 115 356 312 64 97 111 119 105 81 35 335 298 339 70 64 37 32 11 347 322 311 326 330 306 321
40 82 117 98 109 272 14 36 87 82 25 55 357 44 16 57 54 312 329 44 69 78 135 129 115 204 215 146 125 159 138 148 161 150 125 114 117 239 307 353 26 52 63 55 38 26 29 24 14 13 10 350 345 353
67 62 58 88 74 139 274 88 44 70 34 50 358 129 101 124 161 240 310 57 154 153 148 158 163 146 163 158 161 175 162 164 167 135 123 125 131 40 34 25 49 62 63 41 23 46 46 36 16 6 20 6 323 314